Location: Gajan
(43.0218°N, 1.1244°E)
Time: 06:40:16
(UTC+00:00)

Timation 2 Rocket - Pass Details

Date: 22 April 2021
Orbit: 907 x 1074 km, 70.0° (Epoch: 07 May)

Event Time Altitude Azimuth Distance (km) Brightness Sun altitude
Rises 20:16:21 0° 197° (SSW) 3,787 6.9 -15.5°
Reaches altitude 10° 20:18:59 10° 195° (SSW) 2,817 6.2 -15.9°
Maximum altitude 20:25:33 72° 113° (ESE) 1,046 4.0 -16.9°
Drops below altitude 10° 20:31:51 10° 30° (NNE) 2,716 6.4 -17.8°
Sets 20:34:21 0° 29° (NNE) 3,643 7.1 -18.2°
